TimeCST,TemperatureF,Dew PointF,Humidity,Sea Level PressureIn,VisibilityMPH,Wind Direction,Wind SpeedMPH,Gust SpeedMPH,PrecipitationIn,Events,Conditions,WindDirDegrees,DateUTC
12:15 AM,30.9,26.4,83,30.27,10.0,NW,5.8,-,N/A,,Clear,320,2013-11-19 06:15:00
12:35 AM,30.2,26.1,85,30.28,10.0,NW,8.1,-,N/A,,Clear,320,2013-11-19 06:35:00
12:55 AM,30.2,26.1,85,30.28,10.0,WNW,8.1,-,N/A,,Clear,300,2013-11-19 06:55:00
1:15 AM,29.5,25.7,86,30.29,10.0,NW,3.5,-,N/A,,Clear,320,2013-11-19 07:15:00
1:35 AM,30.6,25.9,83,30.30,10.0,WNW,3.5,-,N/A,,Clear,300,2013-11-19 07:35:00
1:55 AM,28.9,25.7,88,30.31,10.0,West,3.5,-,N/A,,Clear,270,2013-11-19 07:55:00
2:15 AM,28.4,25.7,90,30.31,10.0,Calm,Calm,-,N/A,,Clear,0,2013-11-19 08:15:00
2:35 AM,28.9,25.7,88,30.32,10.0,West,3.5,-,N/A,,Clear,260,2013-11-19 08:35:00
2:55 AM,28.0,25.3,90,30.33,10.0,WNW,3.5,-,N/A,,Clear,300,2013-11-19 08:55:00
3:15 AM,28.4,25.9,90,30.33,10.0,NW,3.5,-,N/A,,Clear,320,2013-11-19 09:15:00
3:35 AM,28.0,25.5,90,30.33,10.0,NNE,3.5,-,N/A,,Clear,20,2013-11-19 09:35:00
3:55 AM,27.7,25.5,92,30.33,10.0,North,3.5,-,N/A,,Clear,360,2013-11-19 09:55:00
4:15 AM,27.0,24.6,91,30.33,10.0,Calm,Calm,-,N/A,,Clear,0,2013-11-19 10:15:00
4:35 AM,26.8,25.0,93,30.33,10.0,Calm,Calm,-,N/A,,Clear,0,2013-11-19 10:35:00
4:55 AM,27.1,25.2,92,30.34,10.0,Calm,Calm,-,N/A,,Clear,0,2013-11-19 10:55:00
5:15 AM,26.8,24.8,92,30.33,10.0,Calm,Calm,-,N/A,,Clear,0,2013-11-19 11:15:00
5:35 AM,26.4,24.4,92,30.34,10.0,Calm,Calm,-,N/A,,Clear,0,2013-11-19 11:35:00
5:55 AM,27.0,24.8,92,30.34,10.0,Calm,Calm,-,N/A,,Clear,0,2013-11-19 11:55:00
6:15 AM,27.0,24.3,90,30.35,10.0,Calm,Calm,-,N/A,,Clear,0,2013-11-19 12:15:00
6:35 AM,26.2,23.5,90,30.34,10.0,Calm,Calm,-,N/A,,Clear,0,2013-11-19 12:35:00
6:55 AM,26.1,23.2,89,30.35,10.0,Calm,Calm,-,N/A,,Clear,0,2013-11-19 12:55:00
7:15 AM,26.2,23.9,91,30.36,10.0,Calm,Calm,-,N/A,,Clear,0,2013-11-19 13:15:00
7:35 AM,27.5,24.6,89,30.36,10.0,Calm,Calm,-,N/A,,Clear,0,2013-11-19 13:35:00
7:55 AM,28.6,25.0,86,30.36,10.0,Calm,Calm,-,N/A,,Clear,0,2013-11-19 13:55:00
8:15 AM,30.2,26.1,85,30.36,10.0,Calm,Calm,-,N/A,,Clear,0,2013-11-19 14:15:00
8:35 AM,30.9,25.5,80,30.36,10.0,East,6.9,-,N/A,,Clear,90,2013-11-19 14:35:00
8:55 AM,32.0,25.7,78,30.36,10.0,East,9.2,-,N/A,,Clear,80,2013-11-19 14:55:00
9:15 AM,32.5,26.4,78,30.36,10.0,East,10.4,-,N/A,,Clear,90,2013-11-19 15:15:00
9:35 AM,33.1,26.1,75,30.36,10.0,East,10.4,-,N/A,,Clear,90,2013-11-19 15:35:00
9:55 AM,34.3,26.4,73,30.36,10.0,East,6.9,-,N/A,,Clear,90,2013-11-19 15:55:00
10:15 AM,35.2,25.5,68,30.36,10.0,SE,8.1,-,N/A,,Clear,130,2013-11-19 16:15:00
10:35 AM,35.6,25.2,66,30.36,10.0,SE,6.9,-,N/A,,Clear,130,2013-11-19 16:35:00
10:55 AM,36.5,25.5,64,30.35,10.0,ESE,3.5,-,N/A,,Clear,120,2013-11-19 16:55:00
11:15 AM,37.4,25.9,63,30.34,10.0,SSE,5.8,-,N/A,,Clear,150,2013-11-19 17:15:00
11:35 AM,37.9,25.7,61,30.33,10.0,SE,3.5,-,N/A,,Clear,130,2013-11-19 17:35:00
11:55 AM,38.7,26.2,61,30.33,10.0,SE,3.5,-,N/A,,Clear,130,2013-11-19 17:55:00
12:15 PM,39.6,26.4,59,30.33,10.0,SSE,4.6,-,N/A,,Clear,160,2013-11-19 18:15:00
12:35 PM,39.7,25.9,58,30.32,10.0,South,5.8,-,N/A,,Clear,170,2013-11-19 18:35:00
12:55 PM,41.0,25.9,55,30.31,10.0,SE,6.9,-,N/A,,Clear,140,2013-11-19 18:55:00
1:15 PM,41.2,26.1,55,30.30,10.0,SE,5.8,-,N/A,,Clear,140,2013-11-19 19:15:00
1:35 PM,42.1,27.5,56,30.30,10.0,ESE,6.9,-,N/A,,Clear,120,2013-11-19 19:35:00
1:55 PM,42.1,26.2,53,30.29,10.0,SSE,4.6,-,N/A,,Clear,150,2013-11-19 19:55:00
2:15 PM,42.4,26.2,53,30.29,10.0,SE,5.8,-,N/A,,Clear,130,2013-11-19 20:15:00
2:35 PM,42.6,27.5,55,30.28,10.0,SE,5.8,-,N/A,,Clear,130,2013-11-19 20:35:00
2:55 PM,43.0,28.2,56,30.28,10.0,SE,6.9,-,N/A,,Clear,130,2013-11-19 20:55:00
3:15 PM,42.8,28.2,56,30.28,10.0,SE,6.9,-,N/A,,Clear,130,2013-11-19 21:15:00
3:35 PM,42.8,29.3,59,30.28,10.0,ESE,9.2,-,N/A,,Clear,120,2013-11-19 21:35:00
3:55 PM,42.1,29.7,61,30.28,10.0,ESE,11.5,-,N/A,,Clear,120,2013-11-19 21:55:00
4:15 PM,41.2,30.0,65,30.28,10.0,SE,10.4,-,N/A,,Clear,130,2013-11-19 22:15:00
4:35 PM,40.3,29.8,66,30.28,10.0,SE,9.2,-,N/A,,Clear,130,2013-11-19 22:35:00
4:55 PM,39.6,30.0,69,30.28,10.0,ESE,8.1,-,N/A,,Clear,120,2013-11-19 22:55:00
5:15 PM,39.6,30.7,71,30.28,10.0,SE,9.2,-,N/A,,Clear,130,2013-11-19 23:15:00
5:35 PM,38.3,30.2,73,30.28,10.0,SE,6.9,-,N/A,,Clear,140,2013-11-19 23:35:00
5:55 PM,38.1,30.2,73,30.28,10.0,ESE,6.9,-,N/A,,Clear,120,2013-11-19 23:55:00
6:15 PM,37.4,30.0,75,30.28,10.0,SE,8.1,-,N/A,,Clear,130,2013-11-20 00:15:00
6:35 PM,36.9,30.0,76,30.27,10.0,SE,8.1,-,N/A,,Clear,130,2013-11-20 00:35:00
6:55 PM,36.7,30.2,77,30.27,10.0,SE,9.2,-,N/A,,Clear,130,2013-11-20 00:55:00
7:15 PM,36.7,30.2,77,30.27,10.0,SE,9.2,-,N/A,,Clear,130,2013-11-20 01:15:00
7:35 PM,36.9,29.8,76,30.27,10.0,ESE,9.2,-,N/A,,Clear,120,2013-11-20 01:35:00
7:55 PM,36.5,29.8,77,30.27,10.0,SE,9.2,-,N/A,,Clear,130,2013-11-20 01:55:00
8:15 PM,36.0,30.0,79,30.26,10.0,SE,10.4,-,N/A,,Clear,130,2013-11-20 02:15:00
8:35 PM,36.5,30.0,77,30.26,10.0,SE,10.4,-,N/A,,Clear,130,2013-11-20 02:35:00
8:55 PM,36.5,30.0,77,30.26,10.0,SE,12.7,-,N/A,,Clear,140,2013-11-20 02:55:00
9:15 PM,36.1,30.0,78,30.26,10.0,SE,11.5,-,N/A,,Clear,130,2013-11-20 03:15:00
9:35 PM,35.6,29.8,80,30.26,10.0,SE,11.5,-,N/A,,Clear,140,2013-11-20 03:35:00
9:55 PM,35.6,29.3,78,30.25,10.0,SE,11.5,-,N/A,,Clear,130,2013-11-20 03:55:00
10:15 PM,35.8,29.8,79,30.26,10.0,SE,9.2,-,N/A,,Clear,140,2013-11-20 04:15:00
10:35 PM,35.8,30.2,80,30.25,10.0,SE,15.0,19.6,N/A,,Clear,140,2013-11-20 04:35:00
10:55 PM,35.6,30.2,81,30.25,10.0,SSE,13.8,-,N/A,,Clear,150,2013-11-20 04:55:00
11:15 PM,35.2,30.2,82,30.25,10.0,SSE,12.7,19.6,N/A,,Clear,150,2013-11-20 05:15:00
11:35 PM,34.7,30.2,84,30.25,10.0,SSE,10.4,-,N/A,,Clear,150,2013-11-20 05:35:00
11:55 PM,34.7,30.2,84,30.25,10.0,SE,11.5,-,N/A,,Clear,140,2013-11-20 05:55:00